Weather Roundup
Issued by NWS

Home | Current Version | Previous Version | Graphics & Text | Print | Product List | Glossary Off
Versions: 1 2 3 4 5 6 7 8 9 10 11 12 13 14 15 16 17 18 19 20 21 22 23 24 25 26 27 28 29 30 31 32 33 34 35 36 37 38 39 40 41 42 43 44 45 46 47 48 49 50

000
NZUS93 KARX 191110
HRRWXR

CURRENT HOURLY OBSERVATIONS ACROSS
MUCH OF THE UPPER MISSISSIPPI VALLEY
NATIONAL WEATHER SERVICE LA CROSSE WI
600 AM CDT THU APR 19 2018


...SOUTHEAST MINNESOTA...


CITY           SKY/WX    TMP DP  RH WIND       PRES   REMARKS
ROCHESTER      FAIR      20  17  88 NW10      30.31R WCI   9
ROCHESTER/MAYO FAIR      24  20  86 CALM      30.33R
WINONA         FAIR      23  23 100 W5        30.33R WCI  17
AUSTIN         FAIR      18  16  93 N5        30.33R WCI  11
ALBERT LEA     FAIR      18  14  86 CALM      30.34R
DODGE CENTER   FAIR      21  14  73 NW6       30.33R WCI  14
PRESTON        FAIR      24  18  79 N7        30.31R WCI  16
OWATONNA       FAIR      10   9  92 CALM      30.35R
FARIBAULT      NOT AVBL
$$

...ELSEWHERE IN MINNESOTA...


CITY           SKY/WX    TMP DP  RH WIND       PRES   REMARKS
MINNEAPOLIS    FAIR      29  17  61 N7        30.38R WCI  22
INTNL FALLS    FAIR      20  18  92 CALM      30.35R
DULUTH         FAIR      22  11  62 NW5       30.33R WCI  16
RED WING       FAIR      25  16  68 CALM      30.35R
REDWOOD FALLS  CLOUDY    30  17  58 N3        30.38R
MANKATO        FAIR      23  17  78 NW6       30.38R WCI  16
WORTHINGTON    CLOUDY    24  15  68 N6        30.36R WCI  17
FAIRMONT       PTCLDY    20  15  81 NW6       30.37R WCI  12
$$

...SOUTHWEST WISCONSIN...


CITY           SKY/WX    TMP DP  RH WIND       PRES   REMARKS
LA CROSSE      FAIR      25  23  92 N7        30.32R WCI  17
PRAIRIE DU CHI FAIR      27  26  96 CALM      30.30R
BOSCOBEL       FAIR      24  20  84 CALM      30.29R
LONE ROCK      FAIR      22  21  96 W7        30.28R WCI  13
PLATTEVILLE    FAIR      27  26  96 NW9       30.26R WCI  17
FORT MC COY    FAIR      10   8  92 CALM      30.31R
CAMP DOUGLAS   FAIR      18  17  96 W8        30.28R WCI   8
MAUSTON-NEW LI FAIR      23  19  84 W5        30.27R WCI  17
VIROQUA        FAIR      26  22  87 N6        30.27R WCI  19
WIS DELLS      FAIR      23  21  93 CALM      30.26R
$$

...ELSEWHERE IN WISCONSIN...


CITY           SKY/WX    TMP DP  RH WIND       PRES   REMARKS
MILWAUKEE      FAIR      31  22  69 NW9       30.17R WCI  23
MADISON        FAIR      24  19  81 N8        30.22R WCI  15
GREEN BAY      FAIR      30  19  63 N10       30.21R WCI  21
EAU CLAIRE     FAIR      20  14  77 W3        30.31R
BLACK RVR FLS  FAIR       9   6  89 CALM      30.30R
MEDFORD        FAIR      25  15  65 N5        30.26R WCI  19
WAUSAU         FAIR      27  16  63 NW7       30.24R WCI  19
WIS RAPIDS     FAIR      22  12  65 NW5       30.27R WCI  16
MARSHFIELD     FAIR      20  12  71 N6        30.24R WCI  12
RICE LAKE      FAIR      20  16  82 CALM      30.34R
$$

...NORTHEAST IOWA...


CITY           SKY/WX    TMP DP  RH WIND       PRES   REMARKS
WATERLOO       FAIR      23  20  88 NW5       30.31R WCI  17
DUBUQUE        FAIR      25  22  88 N10       30.25R WCI  15
DECORAH        FAIR      25  23  93 NW6       30.29R WCI  18
MASON CITY     CLOUDY    17  14  88 NW6       30.33R WCI   9
CHARLES CITY   FAIR      19  19 100 N8        30.31R WCI   9
OELWEIN        FAIR      23  23 100 N12       30.30R WCI  12
$$

...ELSEWHERE IN IOWA...


CITY           SKY/WX    TMP DP  RH WIND       PRES   REMARKS
DES MOINES     PTCLDY    33  28  81 N10       30.30R WCI  25
IOWA CITY      CLOUDY    34  29  82 N8        30.30R WCI  27
FORT DODGE     CLOUDY    27  23  85 N5        30.34R WCI  22
MARSHALLTOWN   CLOUDY    27  25  92 N7        30.30R WCI  19
CEDAR RAPIDS   FAIR      29  26  89 N9        30.27R WCI  20
$$

...NORTHERN ILLINOIS...


CITY           SKY/WX    TMP DP  RH WIND       PRES   REMARKS
CHICAGO-OHARE  FAIR      32  29  88 N10       30.15R WCI  24
CHICAGO-MIDWAY FAIR      35  32  88 N12       30.15R WCI  27
MOLINE         CLOUDY    35  31  85 NW8       30.24R WCI  29
ROCKFORD       FAIR      30  24  78 N9        30.22R WCI  22
PEORIA         CLOUDY    35  30  82 N10       30.22R WCI  27
$$

NOTE: "FAIR" INDICATES FEW OR NO CLOUDS BELOW 12,000 FEET WITH NO
SIGNIFICANT WEATHER AND/OR OBSTRUCTIONS TO VISIBILITY. WIND
SPEEDS ARE IN MILES-PER-HOUR.




USA.gov is the U.S. government's official web portal to all federal, state and local government web resources and services.